Weather in Aracruz

Brazil     19°49′41″S   40°16′11″W
temp.,
°C
wind,
m/s
gust,
m/s
humid.,
%
clouds,
%
prec.,
mm/h
press.,
hPa
HPBL,
m
13 may, thu
thu1300:00+18nnw2480100 0.0 101672
03:00+18nnw24788 0.0 101585
06:00+17wnw12830 0.0 101629
09:00+24sse25630 0.0 1019725
12:00+28se445254 0.0 10171700
15:00+25sse59616 0.1 10161086
18:00+21sse511745 0.0 1018789
21:00+20s3107953 0.0 1020681
14 may, fri
fri1400:00+18s268633 0.0 1020199
03:00+18s210830 0.0 1018426
06:00+17ssw23900 0.0 101965
09:00+24s46591 0.0 10211070
12:00+27sse454869 0.0 10191809
15:00+24sse465881 0.0 10181111
18:00+21sse387941 0.0 1019537
21:00+18ssw258822 0.1 1021154
15 may, sat
sat1500:00+17ssw2288100 0.0 102056
03:00+17sw1189100 0.0 101914
06:00+17wsw1189100 0.0 101915
09:00+24sse236181 0.0 1020862
12:00+27se234899 0.0 10181851
15:00+24se236292 0.0 1017596
18:00+19sse24801 0.0 101894
21:00+18sw118597 0.0 102019
16 may, sun
sun1600:00+17sw118923 0.0 101915
03:00+17sw11922 0.0 101821
06:00+16w11935 0.0 101911
09:00+24s125989 0.0 1020882
12:00+28ese214213 0.0 10181628
15:00+26ese424828 0.0 1016973
18:00+20sse238292 0.0 101848
21:00+19ssw1190100 0.0 101911
17 may, mon
mon1700:00+20sw1179100 0.0 101939
03:00+20w1181100 0.1 101826
06:00+20nw118798 0.1 101813
09:00+24nnw236796 0.1 1019811
12:00+24nw3464100 0.0 1017805
15:00+28nnw2351100 0.0 10141447
18:00+22ene1275100 0.0 101542
21:00+20nne139296 0.0 101684